P/2023 S1彗星

P/2023 S1

English version
Home page
Updated on September 4, 2024

---------------------------------------------------------------------

・ プロフィール

発見日 2023年9月20日
発見光度 20.3等
発見者 Pan-STARRS 2 telescope (Haleakala)

・ 写真集

・ 軌道要素

Epoch 2024 Oct. 17.0 TT = JDT 2460600.5
T 2025 Feb. 24.05020 TT                                 Rudenko
q   2.6197412            (2000.0)            P               Q
n   0.13066457     Peri.  180.27039     -0.73799155     -0.66612397
a   3.8461907      Node   317.29368     +0.61942434     -0.60524724
e   0.3188738      Incl.    9.15592     +0.26773486     -0.43583786
P   7.54
>From 449 observations 2023 Sept. 15-2024 Sept. 1, mean residual 0".5.

・ 光度変化

        m1 = 5.0 + 5 logΔ + 20.0 log r

---------------------------------------------------------------------

軌道要素はM.P.E.C. 2024-R10に掲載されたものです。
光度グラフはComet for Windowsで作成したものです。

---------------------------------------------------------------------

Copyright(C) Seiichi Yoshida (comet@aerith.net). All rights reserved.